User: anonymous   Login
Location: Castro Valley
(37.6940°N, 122.0850°W)
Time: 22:20:54
(UTC-07:00)
Language:

PANSAT - Orbit

View from above orbital plane
View from above orbital plane
View from above satellite
View from above satellite

Ground track
Ground track

The orbit data is extracted from the following two-line orbital elements,

1 25520U 98064B   18174.83578289  .00000618  00000-0  13686-4 0  9995
2 25520  28.4580 332.0976 0005110 162.7063 197.3707 15.28857950 91212
Epoch (UTC): 23 June 2018 20:03:31
Eccentricity: 0.0005110
inclination: 28.4580°
perigee height: 476 km
apogee height: 483 km
right ascension of ascending node: 332.0976°
argument of perigee: 162.7063°
revolutions per day: 15.28857950
mean anomaly at epoch: 197.3707°
orbit number at epoch: 9121

The dashed part of the orbit path shows where the satellite is in the earth's shadow,  

DLR